TimeCST,TemperatureF,Dew PointF,Humidity,Sea Level PressureIn,VisibilityMPH,Wind Direction,Wind SpeedMPH,Gust SpeedMPH,PrecipitationIn,Events,Conditions,WindDirDegrees,DateUTC
12:53 AM,33.1,26.1,75,30.41,10.0,Calm,Calm,-,N/A,,Clear,0,2012-11-14 06:53:00
1:53 AM,35.1,26.1,70,30.41,10.0,NNE,4.6,-,N/A,,Clear,20,2012-11-14 07:53:00
2:53 AM,34.0,25.0,70,30.41,10.0,NNE,5.8,-,N/A,,Clear,30,2012-11-14 08:53:00
3:53 AM,33.1,25.0,72,30.41,10.0,NE,4.6,-,N/A,,Clear,40,2012-11-14 09:53:00
4:53 AM,34.0,26.1,73,30.41,10.0,NE,4.6,-,N/A,,Mostly Cloudy,40,2012-11-14 10:53:00
5:53 AM,32.0,27.0,82,30.42,10.0,Calm,Calm,-,N/A,,Mostly Cloudy,0,2012-11-14 11:53:00
6:53 AM,35.1,27.0,72,30.43,10.0,Calm,Calm,-,N/A,,Mostly Cloudy,0,2012-11-14 12:53:00
7:53 AM,37.9,28.9,70,30.44,10.0,NE,5.8,-,N/A,,Mostly Cloudy,50,2012-11-14 13:53:00
8:53 AM,41.0,28.0,60,30.45,10.0,NE,4.6,-,N/A,,Overcast,50,2012-11-14 14:53:00
9:53 AM,42.1,28.0,58,30.45,10.0,NE,4.6,-,N/A,,Mostly Cloudy,50,2012-11-14 15:53:00
10:53 AM,46.0,28.9,51,30.42,10.0,North,4.6,-,N/A,,Overcast,360,2012-11-14 16:53:00
11:53 AM,50.0,30.0,46,30.38,10.0,Variable,3.5,-,N/A,,Mostly Cloudy,0,2012-11-14 17:53:00
12:53 PM,52.0,30.0,43,30.36,10.0,Variable,3.5,-,N/A,,Mostly Cloudy,0,2012-11-14 18:53:00
1:53 PM,51.1,30.0,44,30.35,10.0,Calm,Calm,-,N/A,,Mostly Cloudy,0,2012-11-14 19:53:00
2:53 PM,52.0,28.0,40,30.34,10.0,NNE,4.6,-,N/A,,Mostly Cloudy,30,2012-11-14 20:53:00
3:53 PM,50.0,27.0,41,30.32,10.0,NE,9.2,-,N/A,,Mostly Cloudy,40,2012-11-14 21:53:00
4:53 PM,46.9,27.0,46,30.34,10.0,NE,3.5,-,N/A,,Scattered Clouds,40,2012-11-14 22:53:00
5:53 PM,45.0,28.0,52,30.35,10.0,NNE,8.1,-,N/A,,Scattered Clouds,20,2012-11-14 23:53:00
6:53 PM,42.1,28.9,60,30.35,10.0,NNE,8.1,-,N/A,,Scattered Clouds,20,2012-11-15 00:53:00
7:53 PM,39.9,30.0,68,30.34,10.0,ENE,6.9,-,N/A,,Scattered Clouds,60,2012-11-15 01:53:00
8:53 PM,41.0,28.9,62,30.35,10.0,North,5.8,-,N/A,,Partly Cloudy,360,2012-11-15 02:53:00
9:53 PM,37.0,28.9,73,30.33,10.0,NNE,6.9,-,N/A,,Partly Cloudy,30,2012-11-15 03:53:00
10:53 PM,35.1,28.9,78,30.33,10.0,Calm,Calm,-,N/A,,Clear,0,2012-11-15 04:53:00
11:53 PM,32.0,28.0,85,30.32,10.0,Calm,Calm,-,N/A,,Clear,0,2012-11-15 05:53:00